Location: Casalecchio di Reno
(44.4760°N, 11.2757°E)
Time: 23:43:42
(UTC+02:00)

UWE-3 - Pass Details

Date: 26 June 2024
Orbit: 566 x 652 km, 97.8° (Epoch: 17 July)

Event Time Altitude Azimuth Distance (km) Brightness Sun altitude
Rises 02:35:43 0° 32° (NNE) 2,851 ? -19.9°
Reaches altitude 10° 02:38:57 10° 59° (ENE) 1,922 ? -19.7°
Maximum altitude 02:41:04 14° 90° (E) 1,682 ? -19.6°
Drops below altitude 10° 02:43:09 10° 120° (ESE) 1,891 ? -19.4°
Enters shadow 02:43:46 - 128° (SE) 2,026 ? -19.4°
